Location: Kuffner-Sternwarte
(48.2130°N, 16.2960°E)
Time: 11:23:16
(UTC+01:00)

COROT - Pass Details

Date: 28 March 2017
Orbit: 602 x 887 km, 90.0° (Epoch: 20 November)

Event Time Altitude Azimuth Distance (km) Brightness Sun altitude
Rises 01:31:29 0° 0° (N) 3,121 10.1 -38.4°
Reaches altitude 10° 01:33:41 10° 360° (N) 2,239 9.1 -38.3°
Enters shadow 01:35:16 21° 358° (N) 1,633 8.2 -38.2°
